Content
SEND FEEDBACK

Daily
Averages
Monthly
Summary
United States of America

NEWFANE, VERMONT


Home > North America > United States > Vermont
Elevation: 686 feet     Latitude: 42 59N     Longitude: 072 39W

WEATHER
 
SELECT A DAY
Number of Records: 445,974;   Date Range: 1/1/95 - 8/30/14
 
SHARE

PRINT THIS DATA

[ ← Previous Day ]
WEATHER ALMANAC - APRIL 26, 2014
[ Next Day → ]
[ °C ]   °F
Weather ElementAverageHighLow
Temperature43.8 °F51.8 °F (12:35 am)39.2 °F (4:15 am)
Dewpoint35.2 °F39.2 °F (3:55 pm)24.8 °F (1:35 am)
Humidity73.2 %81 % (4:15 am)35 % (1:35 am)
Barometer29.80 in29.85 in (9:35 pm)29.77 in (2:55 pm)
Wind Speed2 mph9.2 mph (1:15 am)
Weather ElementAverage
Visibility8.4 mi
Wind DirectionENE (68.8 °)

Weather ElementTotal
Precipitation1.52 in
Heating Degree Days19.5 (Base 65)
Averaged from 68 records on April 26, 2014
WEATHER CONDITIONS BREAKOUT
WIND DIRECTION BREAKOUT
WEATHER BY HOUR - APRIL 26, 2014
[ °C ]   °F
Local TimeTemperatureDewpointHumidityBarometerVisibilityWind DirectionWind SpeedGust SpeedPrecipitationEventsConditions
12:35 AM51.8 °F26.6 °F38 %29.80 in10.0 miSouth (170°)8.1 mphPartly Cloudy
1:15 AM51.8 °F26.6 °F38 %29.79 in10.0 miSouth (170°)9.2 mphMostly Cloudy
1:35 AM51.8 °F24.8 °F35 %29.79 in10.0 miSouth (170°)6.9 mphOvercast
1:55 AM50.0 °F24.8 °F37 %29.78 in10.0 miSouth (170°)5.8 mphOvercast
2:15 AM50.0 °F24.8 °F37 %29.78 in10.0 miSouth (180°)8.1 mphOvercast
2:55 AM44.6 °F32.0 °F61 %29.79 in10.0 miSSW (210°)8.1 mph0.02 inOvercast
3:15 AM42.8 °F33.8 °F70 %29.80 in7.0 miCalm0.03 inOvercast
3:35 AM41.0 °F32.0 °F70 %29.80 in10.0 miSouth (170°)9.2 mph0.07 inOvercast
3:55 AM41.0 °F33.8 °F76 %29.80 in5.0 miCalm0.11 inOvercast
4:15 AM39.2 °F33.8 °F81 %29.81 in6.0 miCalm0.05 inOvercast
4:35 AM39.2 °F33.8 °F81 %29.80 in6.0 miCalm0.09 inOvercast
4:55 AM39.2 °F33.8 °F81 %29.80 in8.0 miCalm0.11 inOvercast
5:15 AM39.2 °F33.8 °F81 %29.80 in9.0 miCalm0.03 inOvercast
5:35 AM39.2 °F33.8 °F81 %29.79 in9.0 miCalm0.06 inOvercast
5:55 AM39.2 °F33.8 °F81 %29.79 in10.0 miCalm0.08 inOvercast
6:15 AM39.2 °F33.8 °F81 %29.79 in10.0 miCalm0.02 inOvercast
6:35 AM39.2 °F33.8 °F81 %29.80 in9.0 miCalm0.03 inOvercast
6:55 AM39.2 °F33.8 °F81 %29.79 in7.0 miCalm0.05 inOvercast
7:15 AM39.2 °F33.8 °F81 %29.79 in8.0 miCalm0.01 inOvercast
7:35 AM39.2 °F33.8 °F81 %29.79 in10.0 miCalm0.02 inOvercast
7:55 AM39.2 °F33.8 °F81 %29.79 in10.0 miSW (220°)3.5 mph0.03 inOvercast
8:15 AM39.2 °F33.8 °F81 %29.80 in10.0 miCalm0.03 inOvercast
8:35 AM39.2 °F33.8 °F81 %29.80 in10.0 miCalm0.04 inOvercast
8:55 AM39.2 °F33.8 °F81 %29.80 in7.0 miSouth (190°)3.5 mph0.06 inOvercast
9:15 AM39.2 °F33.8 °F81 %29.80 in5.0 miSouth (170°)3.5 mph0.02 inOvercast
9:35 AM41.0 °F33.8 °F76 %29.80 in10.0 miCalm0.04 inOvercast
10:15 AM41.0 °F33.8 °F76 %29.80 in5.0 miCalm0.02 inOvercast
10:35 AM41.0 °F33.8 °F76 %29.80 in5.0 miCalm0.04 inOvercast
10:55 AM42.8 °F35.6 °F76 %29.80 in4.0 miCalm0.06 inOvercast
11:15 AM42.8 °F35.6 °F76 %29.79 in3.0 miCalm0.01 inOvercast
11:35 AM42.8 °F35.6 °F76 %29.79 in2.5 miWNW (290°)3.5 mph0.02 inOvercast
11:55 AM42.8 °F35.6 °F76 %29.80 in3.0 miCalm0.03 inOvercast
12:15 PM42.8 °F35.6 °F76 %29.79 in4.0 miWSW (250°)3.5 mph0.02 inOvercast
12:35 PM42.8 °F35.6 °F76 %29.79 in5.0 miCalm0.03 inOvercast
12:55 PM42.8 °F35.6 °F76 %29.79 in5.0 miWSW (250°)4.6 mph0.03 inOvercast
1:15 PM42.8 °F37.4 °F81 %29.78 in8.0 miCalmOvercast
1:35 PM42.8 °F37.4 °F81 %29.78 in10.0 miCalm0.01 inOvercast
1:55 PM44.6 °F37.4 °F76 %29.78 in8.0 miCalm0.01 inOvercast
2:15 PM44.6 °F37.4 °F76 %29.78 in6.0 miCalmOvercast
2:35 PM44.6 °F37.4 °F76 %29.78 in5.0 miCalm0.01 inOvercast
2:55 PM44.6 °F37.4 °F76 %29.77 in10.0 miCalm0.01 inOvercast
3:15 PM44.6 °F37.4 °F76 %29.77 in10.0 miCalmOvercast
3:35 PM46.4 °F37.4 °F71 %29.77 in10.0 miSSE (160°)3.5 mphOvercast
3:55 PM46.4 °F39.2 °F76 %29.77 in10.0 miSouth (190°)3.5 mphOvercast
4:15 PM46.4 °F39.2 °F76 %29.77 in10.0 miCalmOvercast
4:35 PM46.4 °F39.2 °F76 %29.78 in10.0 miCalmOvercast
4:55 PM46.4 °F39.2 °F76 %29.78 in10.0 miCalmOvercast
5:15 PM46.4 °F39.2 °F76 %29.77 in10.0 miCalmOvercast
5:35 PM48.2 °F37.4 °F66 %29.77 in10.0 miCalmMostly Cloudy
5:55 PM48.2 °F37.4 °F66 %29.77 in10.0 miEast (90°)3.5 mphMostly Cloudy
6:15 PM48.2 °F39.2 °F71 %29.77 in10.0 miESE (110°)3.5 mphOvercast
6:35 PM48.2 °F37.4 °F66 %29.78 in10.0 miSouth (170°)3.5 mphOvercast
6:55 PM46.4 °F37.4 °F71 %29.79 in10.0 miCalmOvercast
7:15 PM46.4 °F37.4 °F71 %29.80 in10.0 miCalmOvercast
7:35 PM46.4 °F37.4 °F71 %29.80 in10.0 miCalmOvercast
7:55 PM46.4 °F37.4 °F71 %29.81 in10.0 miCalmOvercast
8:15 PM46.4 °F37.4 °F71 %29.81 in10.0 miSouth (190°)3.5 mphOvercast
8:35 PM46.4 °F37.4 °F71 %29.82 in10.0 miCalmOvercast
8:55 PM44.6 °F37.4 °F76 %29.83 in8.0 miCalmOvercast
9:15 PM44.6 °F37.4 °F76 %29.84 in10.0 miSW (220°)5.8 mph0.01 inOvercast
9:35 PM44.6 °F37.4 °F76 %29.85 in9.0 miSouth (180°)5.8 mph0.04 inOvercast
9:55 PM44.6 °F37.4 °F76 %29.83 in6.0 miCalm0.08 inOvercast
10:15 PM44.6 °F37.4 °F76 %29.83 in10.0 miSouth (180°)6.9 mph0.01 inOvercast
10:35 PM44.6 °F37.4 °F76 %29.82 in9.0 miSouth (190°)5.8 mph0.03 inOvercast
10:55 PM44.6 °F37.4 °F76 %29.83 in10.0 miSSW (200°)6.9 mph0.03 inOvercast
11:15 PM44.6 °F37.4 °F76 %29.83 in10.0 miCalmOvercast
11:35 PM42.8 °F37.4 °F81 %29.83 in10.0 miSouth (190°)3.5 mph0.01 inOvercast
11:55 PM42.8 °F37.4 °F81 %29.83 in10.0 miCalm0.01 inOvercast
Hourly data recorded from KEEN, located miles away from Newfane, Vermont







STORIES FROM OUR PARTNERS